QUETZSAT 1

导读

QUETZSAT 1是墨西哥于2011年9月29日发射的本土微卫星,作为墨西哥早期自研航天探索的代表性产物,该卫星承载了该国航天技术启蒙与人才培育的重要使命。它主要用于技术验证与空间环境观测相关试验,为墨西哥后续小型航天项目积累了宝贵的在轨运行经验,是拉美新兴航天力量发展进程中的标志性尝试。

Basic Information
目录编号:
37826
目录名称:
QUETZSAT 1
国际标识:
2011-054A
轨道中心:
EARTH
卫星名称:
QUETZSAT 1
卫星全名:
--
卫星状态:
在轨 (已飞行5374 天)
发射日期:
2011-09-29 UTC
国别 :
(MX)
星等 :
--
Orbit Information
数据来源 国际轨道数据 AOE轨道数据
星历时间 2026-06-16T13:25:48+0800
7小时前
查看轨道信息
2026-06-16T16:00:00+0800
4小时前
查看轨道信息
半长轴 42165.121km 42165.065km
偏心率 0.0002513 0.000249
轨道倾角 0.022° 0.024°
近地点辐角 48.394° 37.310°
升交点赤经 39.389° 48.762°
平近点角 181.171° 221.536°
近地点 35776.387km 35776.428km
远地点 35797.581km 35797.428km
周期 1436.117分钟 1436.114分钟
每日圈数 1.002704 1.002706
Detailed Information
使用方式:
暂无
2D Orbit Map
3D Orbit Map
Orbit Altitude Analysis Chart
Orbit Inclination Analysis Chart
Orbit Comprehensive Analysis Chart
View Comprehensive Chart